Theta_e
297 297 297 298 298 298 302 307 311 311 312 314 316 317 319 321 320 321 323 323 323 323 321 323 323 324 324 325 325 326 325 325 326 327 329 331 332 332 331 331 332 330 329 328 325 321 321 319 316 313 309 308 308 308 308 306 304 302 300 298 295 294 293 293 294 293 291 289 289 289 289 289 292 291 289 289 290 291 290 290 290 289 288 288 287
294 295 295 294 296 296 298 304 307 309 311 313 315 317 319 320 320 321 321 322 323 324 323 322 324 326 325 326 327 326 323 322 323 324 326 327 329 331 331 332 332 331 327 330 327 326 324 323 320 316 313 310 309 309 309 306 304 302 300 297 296 295 293 293 293 294 293 292 288 287 288 288 289 289 288 289 289 289 289 289 288 288 287 287 287
294 294 293 294 295 295 296 301 306 310 312 313 315 316 316 318 319 319 320 322 323 323 323 322 322 321 323 320 325 319 316 320 320 318 320 323 326 328 330 331 332 331 330 327 329 327 326 325 323 319 315 312 310 310 309 307 305 303 301 298 295 295 294 294 293 297 293 290 290 289 287 288 290 288 288 288 289 288 288 288 289 288 288 287 287
294 295 295 294 293 293 293 297 303 307 308 308 311 314 316 317 318 319 319 320 322 322 320 322 319 315 314 311 312 319 316 312 313 309 314 318 322 324 327 330 331 331 331 330 328 329 327 326 325 321 317 314 312 310 309 307 306 303 301 300 297 293 292 291 294 295 293 292 289 291 287 288 286 288 286 286 286 287 288 288 288 288 288 287 286
294 294 293 291 292 294 296 297 297 302 306 309 311 314 317 317 318 319 319 319 320 318 318 316 313 310 305 305 306 309 308 308 308 312 314 316 319 320 323 326 328 330 331 330 327 329 328 327 326 323 318 315 314 312 311 309 307 305 302 300 297 297 292 292 292 294 294 298 295 286 284 285 287 287 286 286 285 286 287 286 287 287 287 287 286
293 295 295 292 293 293 293 293 295 299 304 308 310 313 313 315 315 316 316 316 317 317 316 315 316 316 311 313 312 309 312 309 312 315 314 314 317 319 319 322 325 327 329 330 330 328 329 328 327 325 321 317 314 314 313 311 308 306 304 302 299 299 297 292 291 293 294 294 295 297 292 293 289 287 287 287 285 286 287 287 287 287 287 287 287
290 291 292 292 293 293 293 294 295 297 300 302 303 306 309 309 312 314 316 315 315 314 314 314 314 314 315 317 317 316 315 315 311 307 313 311 309 316 320 320 322 324 326 329 329 328 329 329 328 326 324 320 315 314 313 312 309 307 305 302 301 299 299 295 293 292 292 293 294 293 294 293 292 287 287 288 285 286 286 286 287 287 287 287 287
291 291 292 292 293 294 296 295 294 295 296 299 301 302 307 309 310 312 312 311 312 312 312 315 316 314 314 314 315 316 316 316 312 310 304 306 310 312 315 318 320 322 324 326 327 328 326 328 328 328 327 323 317 315 314 313 311 309 306 304 303 301 300 298 295 293 291 291 293 293 292 294 292 293 292 293 291 285 285 285 285 286 287 287 287
289 292 292 292 294 294 294 295 294 295 296 297 299 300 302 303 305 306 308 308 308 310 311 312 315 315 315 314 313 314 315 314 305 303 307 303 307 307 310 314 317 319 321 323 324 326 324 325 326 325 324 324 317 319 317 315 313 310 307 304 303 302 301 301 299 295 293 294 292 292 292 292 292 291 291 291 291 290 288 284 284 285 286 287 287
291 291 292 293 293 292 292 293 294 293 293 295 296 297 299 299 302 304 306 306 307 308 310 311 311 311 312 312 313 314 310 306 303 305 304 301 306 306 307 310 314 316 318 320 321 323 324 322 322 324 324 322 317 319 318 316 315 312 309 306 305 303 303 301 301 300 296 296 295 294 292 292 289 289 289 288 289 290 293 285 285 283 282 285 287
292 292 291 292 291 291 292 294 292 291 290 293 294 296 297 298 299 301 303 302 303 307 308 309 309 310 312 312 312 312 310 307 305 305 302 300 304 305 305 307 309 313 315 317 318 319 320 319 321 321 321 317 316 317 318 318 316 313 311 308 305 304 303 302 300 301 299 297 296 296 294 294 292 290 291 290 290 288 287 289 286 286 286 286 287
293 292 294 293 295 294 292 293 292 291 292 293 294 295 296 296 297 299 299 300 301 303 304 307 308 309 310 311 311 311 310 308 307 308 306 305 305 305 304 303 305 306 310 313 315 316 316 318 316 318 319 321 321 320 318 316 315 314 312 309 307 305 304 302 301 301 300 298 297 297 297 296 295 295 296 295 292 293 293 292 288 286 285 286 286
294 294 293 294 292 292 293 292 290 291 293 292 293 293 294 295 295 297 299 298 300 300 303 305 305 307 308 309 309 309 308 308 308 308 307 306 306 305 303 304 304 303 306 309 312 314 314 316 317 317 317 318 318 320 320 319 317 315 313 311 309 306 305 304 302 301 301 300 298 298 298 297 296 297 298 297 295 295 294 292 288 287 286 286 285
290 290 290 291 292 292 291 291 291 291 290 290 291 293 293 295 294 296 298 297 297 299 301 303 304 306 306 307 308 307 306 307 307 308 306 305 305 305 305 305 305 305 305 307 310 311 312 314 314 316 317 317 316 317 317 316 316 316 315 313 311 309 308 305 304 303 302 302 302 299 298 298 298 298 298 298 296 293 291 292 288 284 285 285 285
288 290 292 293 294 292 293 292 292 291 291 291 290 291 292 293 294 295 297 297 297 299 300 302 304 304 304 305 305 304 306 306 307 306 306 304 303 304 305 304 305 305 305 305 303 306 309 311 312 313 314 314 314 314 314 314 314 314 313 312 310 309 307 305 304 303 302 301 301 301 300 299 299 299 298 298 297 295 295 293 290 286 284 283 283
291 291 294 294 292 292 293 294 293 291 291 291 291 292 293 294 293 296 297 297 297 298 300 301 303 302 302 303 304 303 303 303 304 302 303 303 303 303 304 304 304 304 303 301 301 303 305 306 307 309 310 310 310 310 310 311 311 311 311 311 310 309 307 305 304 303 303 302 301 302 301 300 300 300 299 299 298 297 296 294 292 292 290 287 284
292 293 293 294 294 294 293 293 295 295 295 294 294 292 293 294 294 295 296 295 296 297 299 299 300 300 301 301 302 302 302 303 304 303 302 301 302 303 303 303 302 301 301 299 300 300 302 303 304 305 306 307 308 308 308 308 309 309 309 309 308 308 305 305 304 304 304 303 302 301 301 302 300 300 299 298 298 296 296 294 294 293 293 293 287
291 291 291 292 291 292 294 293 292 294 295 295 295 292 292 292 293 295 295 296 297 297 297 298 298 299 299 300 301 302 303 303 303 302 301 301 301 301 300 300 301 300 300 299 299 299 300 300 302 302 302 302 304 305 305 306 307 308 308 308 308 307 305 305 304 303 303 302 302 302 301 301 299 297 298 297 296 296 293 293 293 294 295 293 293
294 293 294 295 294 294 294 295 294 292 292 293 294 293 292 292 293 294 296 297 296 297 296 297 297 299 300 300 300 301 301 301 301 300 298 300 301 300 300 301 298 297 297 298 297 297 297 297 298 299 298 299 300 302 303 305 305 306 306 306 306 305 304 304 304 303 303 301 300 299 299 299 297 296 296 294 294 293 293 292 292 293 292 294 295
291 291 292 293 293 293 293 294 295 296 294 293 292 290 292 292 292 293 294 294 294 295 294 296 296 296 298 298 299 300 300 300 300 299 299 300 301 300 300 298 299 296 298 296 297 296 295 295 294 296 297 297 298 299 300 302 303 304 304 303 302 303 303 302 301 299 301 300 299 299 298 297 297 296 295 294 294 293 293 292 291 291 292 292 292
292 292 291 293 293 294 294 292 292 290 288 289 289 291 292 291 291 292 293 295 295 295 293 296 293 296 295 297 298 296 297 298 297 297 299 300 300 299 299 298 292 297 294 295 295 296 296 295 296 296 298 299 299 299 298 300 300 301 300 300 299 298 299 299 298 297 297 298 297 297 297 297 296 295 294 293 292 292 291 291 291 290 290 289 289
291 291 290 292 292 294 295 294 290 291 294 293 293 290 290 290 291 291 291 294 294 295 294 295 294 295 295 297 296 293 296 295 296 296 297 298 298 297 296 292 294 296 292 295 295 295 293 294 295 296 296 297 298 300 298 298 298 298 297 298 298 296 296 297 296 296 295 295 295 296 296 296 295 294 294 293 292 291 290 290 289 289 289 289 289
292 292 293 293 291 291 291 291 292 291 292 290 291 293 293 292 291 289 290 294 293 294 293 292 293 293 294 294 293 294 294 292 293 295 294 296 295 293 291 294 294 294 291 293 294 293 293 293 294 295 296 296 296 296 296 296 296 297 297 296 297 295 295 296 296 296 296 294 294 294 295 295 294 292 293 293 291 291 290 289 289 289 289 289 288
290 290 289 290 291 292 292 294 295 294 293 293 292 291 292 291 291 291 292 294 294 293 291 290 291 292 292 291 292 293 291 291 292 294 294 294 293 293 291 293 294 293 293 292 292 293 293 293 293 294 294 294 294 294 294 294 296 296 296 296 295 295 295 295 296 296 295 294 294 293 294 294 293 292 292 291 291 290 290 289 289 288 288 288 287
291 292 293 293 293 293 293 293 293 293 293 293 292 292 291 291 291 291 292 293 293 292 291 292 290 291 291 290 291 290 291 291 292 293 293 293 292 291 290 292 292 292 293 292 291 291 292 292 293 294 294 293 293 293 293 293 293 293 294 295 295 295 295 295 295 296 294 295 294 294 294 293 292 291 291 290 289 288 289 289 288 288 287 287 286
292 292 292 292 292 293 294 293 294 294 293 292 292 291 291 290 291 289 291 292 292 289 290 291 291 290 292 291 291 290 291 292 292 292 292 292 291 291 291 291 291 293 292 291 292 291 291 292 293 293 293 293 292 292 292 293 292 292 292 293 294 294 294 294 294 294 294 294 294 293 293 293 291 291 291 290 288 288 288 287 287 287 287 286 285
290 290 291 291 293 293 292 293 292 292 292 292 292 293 293 293 294 292 290 289 291 290 290 290 291 289 291 292 292 292 292 292 292 292 291 291 291 291 290 292 290 291 292 292 291 292 291 291 292 292 292 293 292 292 292 292 292 292 292 293 293 293 293 293 294 294 294 293 293 293 293 292 291 291 291 289 288 287 287 287 287 286 285 284 283
290 290 291 291 291 291 292 292 292 292 292 293 293 292 292 293 293 294 292 290 291 289 289 289 289 290 291 292 293 292 292 292 291 291 291 291 291 290 290 290 288 290 291 292 292 292 291 290 292 292 292 291 291 291 291 291 291 291 291 291 292 291 292 292 292 292 292 292 292 292 292 291 291 291 290 289 288 287 286 286 285 284 284 283 283
289 290 290 290 291 291 291 291 291 292 292 293 293 293 293 293 292 292 291 292 289 289 290 289 288 289 291 292 292 292 292 291 290 290 291 291 290 290 289 289 288 289 290 290 291 291 291 290 290 290 291 290 291 292 292 291 291 290 290 290 291 291 291 291 291 291 291 291 291 291 291 290 290 289 289 289 288 288 286 285 284 284 283 283 283
289 289 290 290 290 290 290 290 291 291 292 292 293 293 293 292 293 293 292 291 289 290 289 289 289 290 291 291 291 290 291 290 290 291 291 290 290 289 288 288 289 289 289 289 289 289 290 291 291 290 290 290 291 292 291 292 292 291 290 291 291 291 291 291 290 290 290 290 290 290 290 288 287 287 287 288 288 288 287 287 284 284 284 284 284
288 289 290 289 289 289 289 290 290 291 291 291 292 292 292 292 292 292 292 292 290 290 290 289 290 290 289 289 289 289 289 289 290 290 290 290 290 289 288 288 288 288 288 288 288 288 289 289 290 290 290 290 291 291 291 293 294 294 291 289 290 290 290 290 290 290 290 289 289 289 289 287 287 286 286 287 288 288 287 287 286 286 286 285 284
288 288 288 288 288 289 289 290 290 290 290 290 291 291 290 291 291 291 291 290 290 290 290 291 291 291 290 289 288 289 288 289 288 289 289 289 288 288 288 288 288 288 288 287 287 288 289 289 289 289 289 290 290 290 292 293 294 294 293 290 290 290 290 290 289 289 289 289 288 288 287 286 286 286 286 286 287 287 287 287 287 287 288 288 288
288 288 288 287 287 288 288 288 289 290 290 290 289 288 289 290 290 290 289 289 289 289 290 290 290 290 290 290 289 289 289 288 289 288 288 288 287 287 288 288 288 288 287 287 288 287 288 288 288 288 288 288 288 290 292 293 293 293 294 292 290 289 289 289 289 289 289 288 287 286 285 285 285 285 285 285 285 285 286 287 287 287 288 289 290
286 286 287 288 289 288 288 287 288 288 288 288 287 287 288 288 288 288 288 288 288 289 289 289 289 289 289 289 288 288 288 288 288 288 287 287 287 288 288 288 288 287 287 287 287 287 287 287 287 287 288 288 287 289 291 292 292 292 293 293 289 288 288 288 289 289 288 288 287 286 285 284 284 284 285 285 285 285 285 285 286 285 285 286 288
286 287 287 286 287 288 288 288 289 288 287 288 288 287 287 287 286 286 286 286 287 287 288 288 288 288 288 288 288 288 288 288 288 287 287 287 287 287 287 287 287 288 287 287 288 287 287 287 286 286 287 287 287 290 291 291 292 292 292 292 288 287 287 287 288 287 287 287 286 285 285 284 283 284 284 285 284 284 285 285 285 284 284 284 284
287 287 288 288 288 288 287 288 288 287 288 287 287 287 286 287 286 285 286 286 286 286 287 287 287 288 287 287 287 287 287 287 287 287 286 287 287 287 287 287 286 286 286 285 286 286 286 286 286 286 286 286 286 289 290 291 291 292 292 289 288 287 286 286 286 286 286 285 285 284 284 283 283 283 285 286 286 285 285 284 283 283 282 282 282
285 285 287 288 287 287 287 286 286 286 286 287 287 286 285 285 285 286 286 286 286 286 287 287 287 287 287 287 286 286 286 287 287 286 286 287 287 287 287 285 285 286 286 285 286 286 286 286 285 285 285 285 285 287 290 290 291 291 291 287 287 286 286 285 285 285 284 284 284 284 284 283 283 283 285 287 287 286 284 284 282 282 282 282 282
284 285 285 285 286 286 286 286 286 286 286 286 285 285 284 284 285 285 285 285 285 286 286 286 286 286 286 286 286 285 285 286 286 286 286 287 286 286 286 285 285 286 285 285 285 285 284 284 284 284 284 284 285 286 289 290 290 291 289 287 286 286 285 285 284 283 283 283 283 284 283 283 283 283 286 287 287 286 284 283 282 281 280 280 281
285 285 285 286 286 285 285 285 284 285 286 285 284 283 283 284 284 284 284 284 285 286 286 286 286 285 285 285 285 284 284 284 285 285 286 286 286 286 285 282 283 284 285 283 282 282 282 281 282 283 283 284 284 284 288 289 290 290 289 286 286 285 284 283 283 282 282 282 282 283 283 283 283 284 287 287 287 285 284 283 282 281 280 279 280
283 283 284 285 285 284 284 285 285 286 286 285 284 283 283 283 284 284 284 284 285 286 285 285 285 285 284 284 284 283 283 283 284 284 284 285 284 283 283 282 282 281 282 280 279 281 281 281 280 280 281 282 282 282 285 288 289 289 290 287 286 285 284 283 282 282 281 282 282 282 283 285 285 286 287 287 287 287 284 283 283 282 281 279 281
284 284 284 283 283 283 284 285 286 286 285 284 283 283 283 283 283 283 284 285 285 285 284 284 284 283 283 283 283 282 282 282 282 282 282 282 281 282 281 279 280 279 277 278 278 279 279 279 278 278 278 279 282 283 284 287 289 289 290 287 285 285 285 283 281 280 280 280 281 281 282 285 286 287 287 287 287 287 286 284 284 284 283 281 282
283 284 283 283 282 282 283 283 283 284 284 283 282 282 282 283 282 283 284 285 284 283 283 283 283 282 282 282 281 281 279 280 280 279 280 280 278 275 277 278 278 276 277 278 276 277 278 277 277 276 277 280 282 284 284 286 288 289 289 288 285 285 284 282 280 280 280 280 281 282 282 285 286 287 287 288 287 287 287 284 285 286 285 284 281
284 284 283 283 281 282 283 283 284 283 283 282 278 280 281 282 282 283 284 284 283 282 282 281 281 281 281 281 280 279 279 278 278 278 277 279 276 274 274 274 275 275 276 277 276 276 276 276 276 277 278 280 281 283 284 284 286 288 289 289 287 285 285 282 280 279 279 280 282 282 283 285 286 287 287 288 288 287 286 285 286 286 285 284 281
283 283 283 281 282 282 283 283 284 284 281 280 279 280 280 280 281 284 283 282 281 281 280 279 280 280 280 280 279 278 277 276 276 276 275 276 276 274 273 275 275 276 276 276 275 276 275 276 276 277 278 280 281 282 283 284 285 287 288 288 287 286 285 281 281 280 280 281 281 282 284 286 286 287 287 287 287 286 285 286 287 286 284 282 279
282 283 282 281 282 282 282 282 283 282 283 281 278 280 280 280 282 282 281 281 280 279 278 278 278 279 278 278 277 276 276 275 274 273 275 276 275 272 274 273 274 276 276 276 276 276 276 277 276 278 279 280 281 282 282 284 285 286 287 288 287 286 285 284 281 281 281 281 283 285 286 287 287 287 287 287 286 285 286 286 286 284 282 279 279
281 282 282 282 282 281 281 281 282 281 282 282 280 277 279 281 282 281 280 279 278 277 277 278 278 278 277 276 275 276 275 274 273 272 273 274 275 275 275 274 273 274 275 275 275 275 276 277 278 279 279 279 280 281 282 283 284 285 286 287 286 285 284 283 282 281 282 283 284 286 286 286 287 286 286 284 283 285 286 285 284 282 279 278 278
280 281 281 281 280 280 280 280 280 281 280 281 281 281 280 280 280 280 279 277 276 276 277 277 278 277 276 274 274 276 276 275 272 272 271 272 273 273 274 275 275 276 277 277 277 278 278 278 278 279 279 280 280 281 282 283 284 285 285 285 284 284 283 283 281 281 282 283 284 285 285 286 286 285 284 284 284 285 284 283 281 278 277 277 277
279 279 279 278 278 278 279 279 279 280 280 280 280 280 280 279 279 279 277 275 275 276 277 277 277 276 275 274 274 276 276 275 273 272 272 272 272 272 274 276 278 279 279 279 279 279 279 278 278 279 279 280 280 281 282 282 283 283 283 283 283 282 281 280 280 281 282 283 284 285 286 285 284 283 282 281 280 279 278 276 275 275 274 274 275
277 277 277 277 277 277 278 278 278 279 279 279 279 279 279 278 278 277 275 274 275 276 276 276 276 275 275 275 275 275 274 273 273 272 271 273 273 274 276 276 278 279 279 279 279 279 279 280 280 279 279 279 280 280 282 284 284 284 283 282 281 281 281 281 282 283 283 284 284 283 281 281 280 278 277 276 275 275 273 273 272 272 272 272 272
275 276 276 276 276 276 276 277 277 278 278 278 278 278 278 278 276 275 274 273 275 276 276 276 276 275 275 274 274 273 272 272 272 271 272 274 278 281 279 278 277 281 283 283 283 280 280 279 279 280 281 280 280 281 285 285 285 284 284 283 283 283 283 283 284 285 284 282 281 279 279 278 277 277 276 275 274 273 272 271 270 272 270 270 270
274 274 275 274 274 275 275 275 275 276 276 276 276 277 277 277 276 275 273 273 274 275 276 277 276 276 276 275 274 273 272 271 272 273 273 274 275 278 283 283 283 282 282 283 283 282 282 282 281 279 281 284 284 285 285 285 285 285 284 284 284 284 284 285 286 284 281 280 279 278 277 277 277 276 275 274 273 272 271 271 270 269 268 269 268
Wind_Speed
6 6 7 9 9 9 9 7 8 7 7 7 9 10 11 12 11 13 11 9 8 8 8 9 9 7 7 10 11 8 7 7 7 7 7 8 8 9 9 8 8 11 12 11 10 9 9 9 9 9 10 10 10 11 13 14 13 12 11 9 11 9 4 5 6 7 8 3 2 1 2 1 1 1 3 3 4 3 1 3 2 2 3 3 1
6 7 6 5 6 7 6 7 7 8 11 10 12 14 14 11 12 12 8 10 11 11 10 10 11 11 10 10 9 7 7 7 8 7 8 6 7 8 9 9 9 9 9 10 11 11 10 8 9 8 8 9 10 10 10 9 8 8 7 8 6 10 8 10 9 9 2 6 6 2 2 3 2 3 3 4 4 3 3 3 3 4 4 2 1
6 8 5 6 6 5 5 6 7 11 10 11 11 8 7 9 10 9 9 11 11 11 10 11 9 7 8 6 8 4 4 5 5 4 4 6 7 8 8 8 9 9 9 9 9 10 10 11 12 12 12 11 10 10 9 10 10 11 9 9 8 6 5 6 10 11 6 5 3 5 2 2 4 4 4 7 7 5 3 5 4 5 5 3 1
11 8 8 6 6 5 4 6 10 8 6 6 7 10 9 9 9 10 10 10 10 11 11 9 7 5 4 3 4 6 6 4 5 4 5 7 9 7 8 9 9 9 9 9 9 8 9 10 8 9 12 13 13 12 12 12 12 12 11 10 8 8 5 8 10 11 6 11 4 6 4 3 4 11 10 5 4 5 6 7 4 5 4 3 2
10 10 7 5 5 7 8 8 4 6 8 9 9 10 9 13 13 12 10 10 9 8 9 6 5 4 3 3 3 2 2 2 4 6 7 6 6 8 9 6 8 9 9 9 10 11 10 9 9 8 10 10 9 10 11 12 13 13 14 13 14 12 9 7 10 11 10 12 8 6 2 2 9 1 3 5 3 5 7 5 5 5 6 5 5
8 11 10 5 6 5 4 4 6 7 8 9 7 7 6 6 6 7 6 6 8 9 8 7 8 8 7 7 6 5 7 6 10 12 8 9 10 5 5 8 8 8 9 10 11 10 11 9 9 9 9 11 12 12 10 8 10 11 12 12 13 11 11 9 10 11 10 10 8 3 4 7 6 4 5 6 0 6 3 6 7 7 6 6 6
5 7 6 6 7 5 5 5 6 7 6 1 3 5 5 5 6 7 8 7 7 7 8 8 7 7 11 12 11 11 11 10 6 5 7 6 5 7 8 7 9 9 9 9 10 11 12 13 12 10 8 8 8 9 12 14 13 12 9 10 10 9 8 10 13 12 8 9 10 8 2 2 3 8 8 4 3 3 5 6 7 7 7 7 9
5 6 5 4 5 5 7 3 2 4 2 1 3 3 5 6 5 6 5 5 5 5 7 9 10 9 9 9 9 10 11 11 7 6 4 5 7 8 6 7 8 9 10 10 10 11 11 11 12 13 13 12 10 10 9 7 7 11 15 17 15 14 16 15 14 10 15 13 13 12 7 2 3 0 4 11 6 5 6 4 5 8 7 9 10
4 6 5 5 5 5 4 5 4 1 0 2 3 3 3 3 4 4 5 5 4 6 7 8 9 9 10 8 9 9 9 8 4 4 5 4 6 5 6 7 7 9 10 11 11 11 10 10 10 9 8 9 9 11 13 14 14 9 8 9 11 12 12 14 11 13 13 13 10 12 9 8 5 4 2 3 7 6 7 9 10 3 4 8 10
2 2 3 4 4 3 3 3 2 2 1 0 1 1 2 3 4 4 5 5 5 6 7 7 7 7 8 8 11 10 7 5 3 5 5 4 7 6 6 7 7 8 10 10 10 9 8 7 7 10 11 8 6 8 8 8 10 11 14 15 13 12 10 11 13 11 12 12 12 11 12 9 2 4 5 6 5 5 9 7 9 11 11 13 9
5 6 4 4 3 1 2 4 2 3 2 1 1 1 1 3 4 4 4 3 4 6 6 8 7 7 9 10 12 12 8 6 6 7 5 4 7 7 7 7 7 9 7 8 9 8 8 7 7 7 7 7 7 6 9 11 12 12 9 10 13 17 15 16 15 14 12 12 12 11 13 14 15 14 14 11 12 9 6 9 7 11 14 8 9
6 5 7 6 8 6 5 5 4 3 2 1 0 0 1 1 2 4 4 4 4 4 5 6 7 8 8 9 11 10 8 8 9 11 8 9 9 8 6 5 7 6 6 7 8 8 8 8 8 8 9 9 10 8 7 6 6 7 10 11 11 12 12 12 12 12 12 10 12 11 11 12 11 11 11 11 11 13 11 8 5 2 3 7 1
6 6 6 7 5 6 6 5 4 3 1 1 2 1 1 1 2 4 5 4 4 4 6 7 7 9 10 9 9 7 7 8 9 9 7 9 8 8 6 8 6 6 7 8 9 10 9 9 9 10 9 9 9 10 11 11 9 8 9 11 13 15 15 15 13 15 16 14 15 15 13 11 13 12 8 7 8 7 7 10 4 3 7 3 4
4 4 4 4 4 4 4 5 5 4 2 2 2 1 1 2 2 4 5 4 4 5 6 7 9 9 8 8 8 6 8 8 9 9 8 7 7 8 8 8 8 9 8 10 9 9 9 10 10 10 10 9 9 8 7 6 8 10 10 12 14 15 15 18 18 18 17 17 12 10 11 12 12 10 10 8 9 9 9 12 6 1 1 4 1
4 5 5 5 7 5 5 5 5 5 5 5 3 2 2 3 3 4 5 5 5 6 6 8 9 8 7 7 6 5 8 8 9 8 7 7 6 8 8 7 8 8 8 7 5 7 8 9 9 10 10 10 10 10 10 10 8 7 8 11 11 11 12 11 11 12 13 14 13 12 12 12 11 11 10 11 9 11 12 10 9 7 4 3 4
5 6 7 7 5 6 6 6 5 4 5 5 5 3 2 4 4 5 6 5 5 5 7 8 8 6 6 6 8 7 7 6 6 5 6 6 7 8 9 8 8 7 5 4 5 6 7 8 9 10 9 9 9 9 9 8 8 8 8 9 12 10 13 16 15 15 16 17 16 14 11 12 12 11 11 11 11 11 9 5 8 10 10 8 4
5 5 5 6 7 7 6 6 7 7 6 6 5 4 4 4 4 5 5 4 5 6 7 5 5 5 6 6 6 7 8 9 9 8 7 6 7 7 8 8 6 5 5 5 6 6 7 7 8 9 9 9 9 9 9 9 8 9 9 10 11 10 9 12 11 13 16 16 15 16 15 13 11 11 10 10 10 9 9 9 11 13 10 11 5
3 3 2 1 2 4 6 5 4 5 6 7 7 5 3 4 4 5 5 6 6 6 6 5 6 6 6 6 7 8 8 8 7 7 5 6 7 6 5 7 6 6 6 5 5 6 7 7 8 8 7 7 9 8 9 9 9 9 10 11 10 8 10 9 10 11 11 9 10 10 10 12 9 9 11 11 9 10 9 10 10 8 8 11 10
7 6 7 7 6 6 5 6 5 4 5 5 6 5 4 4 4 4 8 6 6 5 5 5 5 6 6 7 7 8 7 7 6 5 5 7 8 6 7 8 5 5 5 6 6 7 7 7 7 7 7 8 7 8 8 9 9 9 10 10 8 7 8 9 9 10 11 10 11 12 11 10 8 9 9 7 8 8 9 8 8 8 8 11 11
4 5 5 6 6 5 5 7 9 8 8 6 5 4 5 5 4 5 5 5 6 6 5 6 5 5 7 6 7 6 6 6 6 6 7 9 9 8 8 6 7 5 7 5 6 7 7 8 7 8 8 8 8 8 8 9 9 10 9 8 7 7 9 9 9 8 8 9 11 12 11 11 9 9 9 9 9 9 9 9 10 10 10 10 8
3 4 4 6 6 7 7 6 6 6 4 5 4 5 5 4 4 4 6 7 7 6 4 6 4 6 6 8 7 5 7 6 6 7 8 9 8 8 8 7 5 8 5 7 7 8 7 8 8 9 10 9 9 9 8 8 9 10 9 8 6 7 9 8 7 8 8 9 10 11 10 10 8 9 9 8 8 8 7 7 7 7 8 7 9
2 3 4 5 6 8 8 8 6 8 10 12 10 7 5 4 3 4 5 7 7 9 5 6 5 6 6 7 6 5 6 5 7 7 9 10 8 7 7 5 7 8 6 8 8 7 7 8 8 9 9 10 10 10 8 8 10 10 10 7 7 7 8 9 6 9 7 7 7 9 10 9 9 11 9 9 9 8 9 9 8 9 9 10 11
2 3 3 4 4 5 5 6 6 6 6 7 7 8 8 8 7 5 5 9 5 7 5 5 5 5 7 6 6 7 6 6 7 9 9 10 9 7 6 8 9 8 6 8 8 8 8 8 9 9 9 9 9 9 8 8 10 10 10 8 8 7 9 9 9 10 9 7 8 10 10 9 7 8 9 10 8 9 8 9 10 9 11 10 9
6 5 3 2 3 4 6 8 10 10 8 7 6 5 7 7 7 7 8 10 9 6 5 5 5 7 6 6 7 7 6 7 9 10 10 9 8 7 6 8 10 8 10 9 8 9 8 9 10 10 9 9 9 8 8 9 10 10 10 9 8 8 9 9 10 10 9 8 10 10 10 9 8 10 10 9 8 8 9 9 10 9 10 9 9
4 4 3 2 2 5 5 5 5 5 6 7 8 8 7 8 6 7 7 8 8 7 6 7 5 7 7 7 8 7 7 8 10 9 10 9 8 7 6 9 7 8 8 6 8 7 8 9 11 11 10 10 10 9 10 10 9 8 9 9 8 8 9 10 10 10 9 10 10 11 10 9 8 10 9 8 7 10 9 8 9 8 9 7 7
11 13 14 13 10 10 12 11 10 9 8 8 8 7 6 6 6 5 6 8 7 5 6 7 6 7 9 8 9 7 8 10 10 10 10 9 8 8 8 8 8 10 8 8 9 8 9 11 10 10 10 10 9 9 10 11 10 9 9 9 9 9 9 9 9 9 9 9 10 10 10 9 9 11 11 10 9 10 8 8 8 7 8 7 8
12 10 9 9 11 11 9 9 8 7 8 7 7 9 8 7 9 6 5 5 7 6 6 6 6 6 8 9 9 9 8 8 9 9 8 7 8 8 7 9 7 8 8 9 9 9 9 9 10 9 11 11 10 10 10 10 9 9 9 9 9 9 9 9 9 9 9 9 9 9 9 9 10 11 11 10 10 9 9 9 9 8 8 9 9
8 8 9 9 8 8 9 9 10 10 9 8 6 6 6 7 9 9 8 7 7 6 6 6 6 7 7 10 10 9 8 8 7 7 8 8 8 7 8 7 6 9 10 10 10 10 9 8 10 10 10 9 9 9 10 10 9 9 9 9 9 9 9 9 8 8 8 9 9 9 9 9 10 10 10 9 10 10 8 8 7 8 9 10 9
6 6 7 7 8 8 9 9 9 9 10 10 10 9 9 8 6 6 7 8 5 6 7 6 6 7 9 9 9 8 7 8 7 8 8 9 8 7 7 7 7 9 8 9 9 8 8 9 10 9 9 9 10 11 10 10 10 10 9 9 9 9 9 9 9 9 8 8 8 8 8 8 10 12 14 11 11 11 10 9 8 9 9 10 9
4 5 6 6 7 7 8 8 9 10 10 11 11 11 11 11 11 9 7 5 6 7 7 7 7 8 9 8 8 8 8 8 8 9 9 8 8 7 6 7 8 9 9 8 8 8 8 10 10 10 9 9 10 9 11 15 13 10 9 9 8 9 9 9 9 8 8 8 8 7 7 11 12 12 12 13 13 14 14 12 12 11 11 10 11
4 5 5 5 6 7 7 8 9 10 10 10 9 9 10 11 11 12 12 10 8 8 7 6 8 7 7 7 7 8 7 8 9 8 8 8 9 7 7 8 8 8 9 8 7 8 9 9 10 10 10 10 9 8 12 14 15 15 10 8 9 8 8 8 8 8 9 8 7 7 6 7 9 9 10 14 14 15 15 13 15 16 15 15 12
5 5 5 5 6 7 8 8 9 9 9 9 11 12 12 13 12 13 13 12 12 11 12 13 11 10 7 6 7 7 7 8 7 9 8 8 7 7 8 8 8 9 9 6 8 10 10 9 9 9 10 10 9 9 13 14 15 15 13 9 8 8 8 8 8 8 7 7 7 6 5 4 6 8 8 9 11 13 13 12 13 13 12 12 15
5 6 6 5 5 5 6 7 6 8 8 8 7 8 9 11 13 13 12 12 12 11 11 12 12 11 12 11 10 10 10 9 9 8 8 7 7 8 8 8 10 9 6 8 10 9 10 8 9 10 10 9 8 9 13 14 14 14 15 12 7 6 6 7 7 7 7 7 5 5 5 4 4 8 7 7 7 8 9 10 10 9 9 10 7
4 5 6 6 6 6 6 5 6 7 6 6 5 6 7 7 9 9 9 11 10 12 10 11 11 10 10 10 9 10 10 10 9 9 8 8 7 9 8 7 7 6 7 8 8 10 9 9 9 9 10 8 8 9 13 14 14 15 15 13 7 7 7 7 7 6 6 6 6 7 6 5 3 5 5 6 6 7 7 8 7 7 7 8 10
4 5 5 5 5 7 8 9 8 7 7 8 9 5 6 6 6 9 7 8 9 9 10 10 10 10 9 9 10 10 11 11 9 9 8 8 8 9 8 8 7 8 8 9 9 9 9 8 8 8 8 9 8 11 13 13 14 14 14 12 6 5 5 5 5 5 5 6 6 6 6 6 5 6 5 7 8 9 10 9 8 8 8 7 7
5 6 8 7 7 7 7 9 8 8 9 7 8 8 9 12 9 7 9 7 8 9 9 9 10 10 9 9 9 11 11 11 10 10 9 9 9 9 10 8 7 8 7 7 7 7 9 9 9 8 8 10 8 11 12 13 14 12 13 8 5 6 6 5 5 5 5 5 5 6 6 6 6 7 9 14 11 10 11 11 10 9 9 8 6
5 4 7 8 7 8 8 6 7 7 8 9 9 8 8 10 11 11 10 10 9 10 10 10 10 10 10 10 10 11 12 11 10 10 10 10 10 10 8 5 7 8 8 8 9 9 8 8 8 8 9 9 7 9 12 13 13 12 9 6 5 5 5 5 5 4 4 5 6 7 7 7 8 8 12 16 16 15 11 12 12 11 9 9 8
5 4 5 6 7 8 7 6 8 10 9 7 6 7 8 9 10 9 9 11 10 11 10 9 10 10 10 10 10 9 11 12 10 11 11 11 9 8 8 5 7 8 9 9 8 8 7 7 8 9 9 9 8 8 12 12 12 13 9 6 5 5 5 5 4 4 5 6 8 12 9 8 8 8 14 18 20 15 12 12 13 13 12 10 8
4 4 6 7 6 6 8 8 7 8 9 6 6 6 7 10 9 9 8 9 10 10 10 11 13 12 11 10 9 9 9 10 11 11 9 11 10 9 8 5 7 7 9 6 6 7 7 6 6 7 8 9 6 6 8 9 11 11 9 6 6 6 6 6 6 5 5 5 5 7 10 9 9 12 20 21 22 15 12 12 12 12 11 10 9
4 4 4 6 6 6 6 7 8 9 8 8 6 7 8 9 10 8 10 11 10 10 11 10 11 11 10 10 9 9 9 9 11 11 9 9 8 8 8 7 7 6 8 6 6 6 7 7 5 5 6 6 5 4 5 9 12 14 14 8 6 6 7 6 6 5 5 4 6 6 8 13 13 16 20 22 22 17 12 11 11 12 13 11 8
4 4 4 3 4 5 7 8 9 9 8 7 6 7 9 9 9 10 11 11 10 10 10 11 11 11 11 11 9 7 10 10 8 10 10 8 7 7 7 6 8 7 6 7 6 6 6 6 5 5 5 4 5 6 7 11 12 12 12 10 6 8 7 6 6 6 6 6 6 6 6 13 17 19 21 22 21 17 16 13 12 11 9 12 13
4 6 4 2 3 4 6 7 7 8 7 7 6 7 8 9 9 11 11 9 9 10 10 10 12 12 11 11 10 9 7 8 9 7 9 10 6 5 6 6 6 5 6 7 5 5 6 6 4 4 4 5 5 7 4 8 11 12 13 13 8 7 6 7 6 6 6 6 6 6 6 12 18 19 20 22 20 19 18 10 10 12 17 22 12
5 4 2 2 3 4 6 6 6 5 5 5 5 6 9 9 11 13 11 9 8 8 9 10 11 12 12 11 10 9 9 7 8 7 7 10 8 6 6 4 5 5 6 7 6 5 4 5 4 5 4 4 4 5 7 6 9 12 14 14 13 6 10 7 8 8 7 7 6 6 7 14 18 20 22 23 21 21 16 9 16 19 21 22 14
3 3 4 4 5 4 6 7 8 7 4 3 4 6 6 7 12 11 10 10 9 9 9 10 11 11 11 11 10 9 8 7 7 7 7 8 9 7 5 5 5 5 6 7 6 5 4 4 5 5 4 4 4 5 6 8 7 11 13 13 12 12 12 6 6 6 6 7 8 8 9 18 18 19 22 22 21 18 10 18 19 21 22 17 9
6 7 5 4 5 7 7 8 6 6 7 5 4 6 9 11 10 6 10 11 10 9 9 11 11 10 10 9 9 9 9 8 7 5 7 8 7 6 7 5 4 5 5 6 6 4 5 5 5 5 5 4 4 4 4 6 9 9 11 12 12 13 12 12 7 5 7 7 9 13 17 19 19 20 22 22 18 17 19 19 21 22 17 9 9
5 6 8 7 8 8 7 9 10 5 8 8 5 4 9 13 9 7 8 9 10 11 11 12 11 9 9 8 9 9 7 7 7 6 6 6 6 6 7 6 4 5 5 5 5 4 5 5 5 5 5 4 3 3 4 4 5 7 7 11 12 13 12 12 8 8 11 14 16 17 21 20 19 18 14 10 9 11 18 20 20 18 9 9 9
10 8 9 10 9 11 12 11 13 9 6 8 9 8 7 9 11 10 8 8 10 10 11 12 11 10 9 7 8 9 8 7 5 6 6 6 6 5 6 6 5 5 5 5 5 4 5 5 6 5 4 4 4 4 4 5 6 7 7 9 10 10 13 11 7 7 10 10 13 13 11 14 12 15 14 13 12 13 13 12 9 8 7 8 8
5 7 6 7 8 9 10 11 12 11 8 8 8 9 9 9 9 10 9 9 10 10 11 12 12 9 9 8 8 9 9 8 7 6 7 7 5 4 5 6 6 6 6 6 5 6 7 7 6 5 3 3 4 3 3 5 6 6 6 6 6 7 7 6 6 7 7 8 9 10 13 11 11 11 10 7 7 7 7 8 7 7 6 6 6
7 8 6 8 8 9 10 11 13 10 9 10 10 10 9 9 9 8 8 9 11 10 11 11 11 8 9 7 7 7 7 7 7 6 6 6 6 5 5 6 5 4 4 4 4 5 4 3 3 3 4 5 4 5 5 2 3 6 7 7 7 7 7 6 8 11 9 9 9 8 8 9 9 9 9 8 8 8 6 6 7 7 6 6 7
7 8 9 9 8 8 12 14 12 9 9 11 12 12 10 8 7 7 6 8 11 11 11 11 9 8 9 8 7 7 6 6 6 6 7 6 6 8 8 6 6 6 6 5 4 4 3 2 3 3 2 3 4 3 2 7 9 10 11 10 9 11 10 8 13 18 10 8 8 8 9 10 10 10 10 10 9 9 8 7 5 6 6 6 6
11 12 12 11 12 12 12 13 13 11 11 11 12 12 11 10 8 7 7 9 9 9 10 11 9 8 9 8 8 8 7 6 6 5 5 5 6 6 6 6 5 3 3 3 3 1 1 2 1 2 3 3 1 3 8 9 11 12 13 13 14 14 15 17 19 13 9 8 9 8 8 8 8 9 9 9 8 8 7 7 6 5 5 6 6
Wind_Direction
251 235 239 236 232 223 218 207 217 215 216 204 201 205 204 203 193 207 203 192 186 186 187 190 199 206 214 211 217 209 210 209 216 215 211 211 205 204 201 206 207 199 197 196 203 200 201 193 194 195 190 191 202 204 189 186 189 188 181 175 166 160 154 153 161 140 133 79 28 10 349 359 299 308 270 272 255 252 215 224 270 269 223 193 237
285 277 266 269 252 239 220 209 197 201 217 201 202 205 204 199 198 207 188 193 197 196 193 196 201 202 201 214 216 207 203 206 217 214 216 216 217 212 207 204 204 204 202 199 199 197 196 195 191 193 195 203 203 206 204 193 195 203 178 165 180 172 176 174 168 137 175 178 162 211 332 317 271 272 253 242 246 267 266 261 221 228 238 246 286
270 260 270 262 264 261 226 221 215 214 215 204 212 206 201 200 205 199 195 194 201 198 191 203 202 205 202 209 204 216 227 214 218 209 205 217 220 218 215 210 208 210 202 203 202 204 205 202 198 188 191 196 204 206 203 197 187 192 190 186 172 184 148 176 180 190 156 117 82 80 281 276 273 282 250 239 220 208 227 242 234 231 225 205 248
274 264 261 253 250 260 240 230 223 217 219 207 202 202 201 204 202 198 197 198 199 201 201 203 192 184 186 169 194 189 200 202 207 203 203 217 226 221 224 214 210 213 207 203 208 208 206 212 218 205 196 191 194 201 203 204 190 194 191 192 176 174 175 185 197 199 154 140 163 186 163 167 312 242 224 241 199 212 210 222 215 232 232 226 179
277 284 270 263 263 242 223 229 226 218 219 212 202 202 200 202 203 199 195 197 199 196 197 174 145 135 114 71 70 74 22 173 194 230 215 213 221 218 224 220 218 217 213 211 209 211 210 209 206 201 201 198 199 203 207 206 199 198 195 191 183 183 186 185 198 205 198 200 154 123 93 208 222 298 149 252 170 221 227 218 225 226 225 218 211
250 265 271 267 258 277 272 260 232 235 228 221 210 209 204 209 201 196 193 191 195 194 184 168 178 174 166 173 192 196 215 195 210 217 208 211 217 208 216 215 223 223 217 216 213 210 211 212 212 205 201 201 197 198 209 212 207 203 203 201 196 195 186 175 198 211 211 221 233 246 155 173 177 184 123 258 7 234 219 209 217 218 218 219 230
269 273 280 286 280 288 273 235 231 233 250 313 215 213 209 202 195 194 195 195 190 183 173 174 181 189 194 200 205 207 216 226 221 217 207 214 198 205 210 206 216 222 225 221 221 217 217 215 216 218 207 204 219 217 207 200 195 200 199 206 207 190 179 195 201 198 208 230 235 239 153 124 170 137 204 78 288 248 222 223 223 216 212 214 222
268 273 294 297 294 272 279 285 250 251 269 206 212 205 206 206 192 198 196 191 188 174 178 184 192 196 201 212 214 219 219 230 202 216 203 186 201 212 207 211 210 219 224 226 225 222 219 222 220 215 212 202 190 204 223 235 227 209 196 199 199 195 193 199 199 185 192 212 213 226 222 153 187 161 156 188 180 180 232 233 255 225 208 220 219
266 302 322 320 303 295 278 301 299 273 329 196 204 208 209 200 194 184 192 186 188 180 184 196 201 198 204 208 222 228 231 237 206 201 205 192 209 212 212 215 215 217 223 226 226 226 222 222 216 222 234 226 203 206 204 201 202 201 208 219 214 208 207 213 199 196 198 206 190 224 227 216 210 212 185 211 190 194 233 190 216 194 236 237 225
351 270 280 304 304 301 269 281 360 0 359 59 90 143 177 173 186 185 203 190 189 188 192 201 205 198 205 214 224 231 226 244 200 223 217 195 223 214 213 215 217 220 222 225 229 229 230 221 226 219 214 217 215 218 215 219 221 211 198 196 205 220 220 215 211 203 206 211 198 203 207 206 181 249 241 216 259 238 229 197 200 187 209 229 208
339 332 322 320 295 315 20 62 347 4 7 49 58 87 137 174 181 193 212 196 192 198 193 204 204 202 212 215 221 229 224 217 224 239 224 221 229 224 215 219 216 224 222 227 227 227 232 232 226 227 227 211 203 216 224 216 204 205 214 222 214 206 203 208 216 216 207 210 205 200 205 195 198 203 210 207 204 207 233 234 200 200 214 220 212
331 344 346 343 349 352 16 24 4 343 8 11 355 37 144 183 169 200 227 204 203 204 201 214 208 216 221 220 224 227 220 214 221 231 217 224 225 229 222 226 228 228 226 230 226 221 225 231 232 235 235 233 232 221 214 223 232 215 200 196 208 224 234 228 220 217 216 214 213 214 215 210 217 222 224 210 200 217 207 231 211 185 274 229 99
341 342 340 343 336 325 338 333 344 359 329 303 290 282 244 186 180 197 238 220 212 202 207 214 215 220 219 224 230 224 223 222 226 233 221 224 224 232 219 229 226 229 223 225 226 217 222 228 227 229 233 234 239 239 243 237 227 216 213 210 209 209 212 214 215 214 210 209 213 213 215 214 219 223 224 208 212 217 206 236 235 183 215 196 188
309 318 314 309 309 315 306 307 310 303 272 249 254 245 244 216 197 195 236 215 211 208 215 218 224 226 222 225 227 219 228 224 230 230 227 224 219 229 226 227 227 225 221 224 219 218 222 228 231 235 236 237 234 237 240 235 231 231 225 221 218 219 217 215 216 215 215 217 218 217 216 219 223 220 219 208 204 186 206 214 198 209 164 213 85
355 350 347 335 333 330 317 307 298 295 299 296 272 226 189 215 208 216 238 235 208 215 214 225 232 230 227 227 229 221 229 227 232 227 227 225 222 230 232 230 231 232 225 231 214 216 223 225 230 234 235 235 234 235 236 239 242 243 234 227 223 220 224 224 231 228 223 218 216 215 219 221 224 220 212 214 201 203 205 204 177 194 226 198 245
353 359 353 347 331 324 327 326 313 297 287 288 289 282 240 234 213 221 228 232 217 221 225 226 233 230 228 227 227 225 230 235 243 234 235 222 229 224 236 229 233 237 235 223 222 211 220 224 226 232 233 232 230 230 230 231 232 239 245 239 235 223 219 212 213 212 219 218 218 218 219 224 221 219 214 208 205 208 211 187 189 208 206 240 181
359 358 348 339 346 345 337 325 326 325 321 302 290 272 257 264 248 252 253 254 242 232 235 234 240 236 235 229 231 229 227 229 233 233 229 228 230 233 234 236 235 230 237 219 226 219 223 223 227 232 233 235 238 237 236 235 234 238 243 243 238 224 222 225 222 219 222 215 214 213 217 222 218 215 217 210 206 204 206 197 196 197 197 226 213
303 315 308 296 296 314 328 321 304 298 300 309 309 310 290 282 280 283 281 264 253 244 244 235 235 236 237 234 235 230 232 236 233 238 228 232 237 238 242 247 235 226 221 224 218 225 225 224 229 231 231 232 235 238 239 240 237 239 240 243 242 231 225 221 218 222 227 226 229 226 223 228 218 213 217 213 204 205 201 196 197 206 200 212 223
14 358 353 354 352 340 329 315 309 295 294 295 299 302 294 270 250 244 264 262 263 260 250 247 230 236 230 232 231 234 233 238 238 236 232 236 242 236 237 242 245 225 225 222 222 227 225 227 227 235 230 232 232 234 232 237 235 241 238 240 234 228 227 226 222 217 222 217 219 222 221 227 213 217 217 209 208 199 202 196 199 204 209 217 227
351 350 342 336 332 324 322 325 328 331 331 315 300 301 284 273 266 266 274 277 281 274 268 265 256 246 251 245 243 233 229 230 230 227 233 235 237 232 236 239 232 223 228 219 224 227 223 226 226 230 232 231 231 232 230 233 233 237 238 239 238 230 233 231 229 220 220 220 223 225 222 221 216 216 215 211 206 206 201 197 199 203 214 216 212
346 336 325 328 331 333 333 330 327 326 306 305 304 297 289 306 299 296 293 300 292 278 260 261 259 254 254 253 253 249 249 237 234 224 233 239 240 231 232 229 218 230 211 220 225 226 223 223 224 226 228 228 228 231 226 229 232 239 237 237 236 232 240 244 235 231 223 220 220 224 223 221 211 215 217 211 207 204 197 201 198 200 213 207 200
286 305 308 321 336 338 336 341 346 354 352 348 339 331 322 316 293 304 303 281 288 294 284 278 264 258 258 264 267 259 252 252 249 245 238 239 237 234 230 222 229 232 199 223 225 223 221 221 224 228 228 229 229 231 226 224 232 236 240 232 234 233 242 248 233 238 225 225 225 226 226 220 207 215 211 211 206 199 197 198 195 195 205 206 207
287 299 303 304 299 309 322 322 331 348 341 336 338 342 333 330 334 321 301 287 267 274 286 274 271 267 263 263 266 261 254 250 250 250 249 248 241 229 210 221 231 233 212 218 223 219 219 219 225 229 227 227 226 228 224 221 231 232 234 233 226 222 231 237 236 236 230 218 223 225 229 219 208 212 214 214 200 202 195 198 204 201 207 208 201
258 260 270 286 325 346 356 357 355 357 352 341 325 324 329 331 323 322 312 301 308 303 300 290 279 271 266 268 261 258 254 248 246 249 250 249 246 245 230 229 230 220 222 219 211 215 214 217 224 227 225 226 226 225 224 224 228 227 231 234 229 226 229 232 234 236 229 218 221 225 230 221 208 214 216 213 206 202 196 203 204 202 204 202 197
226 214 213 219 5 15 14 0 354 347 343 349 352 344 337 323 320 313 303 298 299 308 308 296 287 288 283 270 266 258 255 251 248 253 252 252 246 244 232 233 235 236 234 229 231 215 216 216 221 222 221 221 222 218 222 227 228 226 228 231 232 230 230 231 231 232 229 223 222 224 227 217 208 216 219 214 204 205 205 201 203 195 195 193 177
2 1 7 3 355 360 1 353 350 354 352 347 346 343 333 319 310 293 292 304 300 309 294 295 299 294 290 282 274 269 258 256 256 258 255 255 251 242 240 239 227 238 232 227 227 220 216 222 221 221 218 221 216 214 219 223 222 220 225 229 232 232 232 232 231 231 230 224 223 225 223 211 208 210 216 212 204 207 199 201 202 193 187 167 172
4 357 352 359 3 352 341 344 346 343 347 344 345 343 344 340 334 335 312 299 305 315 306 301 297 287 287 283 283 275 267 266 262 261 265 259 251 247 242 243 232 235 235 234 230 229 224 221 225 219 221 217 214 213 219 221 219 217 219 224 231 231 231 231 230 229 228 226 223 223 220 210 211 212 213 206 200 199 194 201 196 188 173 167 172
358 6 3 352 337 341 345 340 341 343 338 342 343 342 340 339 334 332 336 334 322 319 308 300 294 289 278 279 277 280 281 275 275 272 266 261 259 253 246 248 237 236 236 237 234 230 231 219 227 224 224 216 213 215 219 218 216 214 215 221 220 228 233 234 234 231 226 226 222 220 217 211 211 212 209 204 189 192 185 190 184 171 172 170 170
360 350 350 351 344 333 333 336 334 337 342 342 342 343 343 340 335 333 338 333 329 327 312 300 293 279 276 274 281 284 286 284 282 277 272 267 261 256 253 245 238 243 239 239 237 233 230 230 232 230 230 218 216 219 216 212 211 213 213 217 218 223 226 231 232 232 229 227 225 220 217 214 211 213 209 200 194 184 173 180 182 173 171 169 162
341 331 333 333 328 329 329 331 336 341 340 341 343 342 343 338 334 335 334 328 345 326 312 305 293 284 285 287 287 288 285 284 281 274 270 269 267 260 253 247 242 240 243 238 239 234 231 233 233 232 229 226 228 227 220 213 209 209 209 216 216 221 222 227 229 233 232 225 226 219 218 215 212 210 204 197 192 188 189 183 173 172 168 167 166
318 325 322 321 321 323 329 337 337 338 337 335 334 334 335 335 337 337 335 335 339 327 321 303 295 289 289 291 290 284 282 277 270 270 270 269 267 261 252 249 247 243 241 238 232 234 231 232 233 233 229 228 232 231 225 218 217 215 212 217 217 221 221 225 226 228 232 227 223 220 220 211 208 203 200 194 192 191 192 189 179 176 173 165 161
321 307 307 314 327 330 333 331 329 328 333 338 339 340 338 335 334 334 331 332 336 335 332 327 323 323 320 309 297 292 290 285 283 276 273 270 268 262 255 250 250 246 242 235 234 233 235 232 234 235 235 232 233 230 225 223 221 220 217 218 220 222 219 222 224 226 230 226 224 218 213 195 197 197 186 188 190 190 189 184 181 186 182 175 167
311 306 305 307 310 313 308 313 318 319 325 326 328 328 327 325 327 325 327 331 331 329 328 324 325 330 325 325 322 318 310 305 296 291 286 282 272 266 259 255 251 247 244 233 236 234 238 233 231 235 237 234 237 225 226 225 223 222 223 220 224 222 220 223 219 219 219 219 215 206 199 196 198 187 178 176 172 175 174 163 159 148 139 141 125
283 286 295 300 313 312 308 299 296 298 301 303 302 295 299 303 306 312 319 317 320 319 324 319 320 324 322 321 321 317 312 305 301 297 293 285 277 267 265 258 260 255 239 244 238 236 237 233 229 232 238 236 234 226 226 225 223 224 226 223 224 216 223 222 222 215 212 210 202 195 189 187 166 166 168 163 153 149 142 136 128 124 122 104 93
294 303 304 303 300 308 313 318 319 319 315 324 324 323 317 313 316 315 311 310 314 315 317 317 316 318 321 322 322 317 311 309 304 297 292 283 274 274 270 259 251 248 241 239 238 237 237 232 232 229 237 239 233 226 227 224 225 226 227 225 218 216 219 226 222 217 211 204 194 188 182 174 161 165 167 160 155 153 147 144 132 121 104 93 101
303 308 312 320 318 310 305 305 312 323 325 331 320 328 334 324 323 314 314 315 312 314 311 314 316 319 320 319 318 313 309 308 304 299 291 283 276 265 267 263 254 256 248 249 251 236 240 233 228 224 229 238 231 220 222 224 225 224 221 217 211 209 216 216 217 208 207 189 176 169 165 163 163 165 169 165 163 153 148 140 125 109 97 89 81
280 279 290 301 306 310 306 307 309 312 317 320 321 327 326 321 324 324 325 322 325 320 320 320 317 318 318 318 317 310 307 305 302 298 291 283 278 275 265 252 256 253 249 243 240 234 233 231 228 222 225 234 231 219 219 220 220 214 204 207 201 205 209 211 212 202 187 171 169 169 166 165 169 171 172 167 158 152 144 141 129 118 117 114 116
285 295 286 294 303 308 307 312 314 314 309 307 314 320 320 315 312 315 320 319 322 315 316 316 312 315 312 312 309 305 302 303 302 296 291 287 279 272 270 245 243 251 247 243 241 248 240 230 227 226 220 227 231 219 219 218 214 211 203 199 194 197 204 199 193 175 173 178 181 176 169 162 159 162 169 163 162 158 148 144 138 133 130 124 123
266 272 290 297 292 291 296 309 307 303 302 309 311 315 314 309 310 312 313 310 310 311 317 318 315 313 311 308 305 301 295 295 295 291 289 290 287 279 277 257 247 249 252 250 243 245 250 241 237 235 227 227 232 227 214 208 209 205 202 190 187 190 192 189 177 182 179 169 159 167 161 159 164 167 170 168 164 161 153 149 143 137 132 132 147
277 278 260 271 289 313 309 305 303 297 305 312 316 321 314 308 309 316 314 311 309 312 310 308 306 307 306 305 303 302 296 292 291 291 287 278 284 290 278 265 259 249 257 249 242 237 243 244 233 234 231 224 224 224 206 203 206 206 200 187 182 184 193 187 183 168 145 146 154 157 164 164 164 168 173 170 168 161 152 146 143 149 154 157 147
282 272 266 257 268 269 281 289 293 296 302 305 314 317 310 309 310 313 305 302 305 307 308 306 306 306 306 304 301 294 297 295 284 284 289 286 279 274 279 271 267 266 262 259 243 240 236 243 229 228 222 225 209 210 214 207 208 205 196 172 193 194 193 175 167 161 167 158 161 162 161 167 167 173 175 174 165 155 156 159 164 161 156 142 138
246 260 277 267 276 277 278 282 280 282 287 297 303 300 293 300 304 295 289 297 301 302 303 305 304 303 302 301 301 300 290 288 296 295 293 290 282 276 267 265 271 266 259 256 249 241 236 236 231 213 207 215 214 211 196 208 208 204 201 183 189 200 175 159 156 162 158 163 165 163 165 175 174 175 174 169 162 162 159 153 164 150 133 141 142
320 324 308 301 294 287 281 277 271 265 269 270 269 281 294 302 300 293 301 302 299 299 300 300 300 299 299 299 299 300 302 305 299 297 290 287 293 290 276 262 257 258 254 257 249 242 230 231 228 224 220 216 203 202 199 202 213 209 207 199 199 171 165 158 165 168 169 159 152 160 167 173 173 173 169 167 164 160 158 152 144 139 145 144 136
295 274 295 318 310 296 297 301 306 303 281 259 238 261 266 273 281 291 300 302 303 300 298 295 293 292 295 297 299 301 299 298 297 299 293 286 288 281 277 260 245 242 251 255 260 244 238 233 225 234 229 211 209 196 202 199 206 208 211 205 185 171 163 163 161 160 158 160 164 168 167 171 171 166 165 165 160 156 148 151 145 146 144 138 132
312 317 316 320 312 310 309 304 300 301 302 302 287 289 296 291 289 304 300 302 299 298 293 288 288 287 287 288 294 293 294 294 293 288 290 285 284 281 276 269 242 250 242 247 256 246 239 242 241 235 230 221 209 199 193 196 193 196 201 205 171 167 165 158 157 165 161 166 166 163 163 161 160 159 162 156 150 149 150 148 145 141 136 133 142
320 326 336 332 326 319 316 313 310 315 314 312 300 273 290 291 298 298 295 297 299 300 298 291 290 288 285 289 292 289 283 279 285 276 260 264 269 278 268 275 261 248 244 238 245 251 256 255 252 250 244 235 221 195 195 180 177 172 170 162 164 168 170 172 155 159 161 159 160 162 163 157 155 155 153 142 145 149 145 143 141 139 139 145 151
328 329 332 331 334 325 320 318 310 313 314 304 307 301 281 291 301 305 302 298 297 294 291 290 289 292 292 290 286 288 294 289 282 283 273 264 258 257 264 267 256 249 250 244 235 235 242 248 248 247 249 245 231 217 195 180 173 172 174 171 163 161 155 146 143 152 154 157 158 158 159 154 146 139 133 133 133 137 138 137 130 133 143 150 154
312 312 321 315 312 308 306 308 304 308 310 300 297 296 296 294 296 301 304 302 295 291 291 292 293 293 290 289 285 283 285 289 287 280 282 283 267 242 249 248 241 242 241 245 234 230 228 227 237 237 243 254 247 253 217 184 177 163 157 150 148 141 148 150 147 152 153 154 152 152 149 141 134 130 129 120 111 103 115 119 126 131 135 134 128
323 318 319 312 307 306 301 301 302 309 310 306 304 301 302 299 296 299 301 301 295 293 287 285 287 289 283 280 273 276 275 280 286 285 264 248 252 258 246 254 264 255 251 258 260 265 258 274 279 252 228 231 235 228 230 195 161 151 149 145 145 148 145 149 154 155 149 150 155 148 138 135 129 128 123 123 120 116 104 115 127 136 138 139 138
320 314 311 309 309 309 310 307 304 311 311 309 307 306 307 303 298 298 299 292 292 295 294 289 288 284 282 283 276 270 266 264 266 274 288 293 260 235 225 231 261 274 263 258 240 240 237 213 232 245 251 260 267 302 159 156 150 143 141 141 139 143 143 143 156 158 156 153 149 144 147 145 143 142 144 144 145 142 143 140 143 141 134 134 137
327 325 324 326 319 317 311 308 309 317 311 307 304 304 309 309 304 300 301 294 292 293 290 288 287 282 281 278 276 275 265 256 251 250 261 272 288 305 272 240 228 234 253 262 273 274 268 205 222 269 320 330 342 176 170 154 149 145 142 143 149 151 152 157 158 148 151 154 152 151 150 148 149 147 147 147 144 146 150 144 145 136 131 143 142